Charter Quote
Worldwide +44-20-3874-8091 Call
Select Language Lang
SAFETY RELIABILITY EXPERIENCE

Cameri Airport (LIMN) - Jet Charter Services

AIRPORT INFORMATION
ICAOLIMN
IATALTT
LOCATIONCameri, Italy
FACILITY TYPEAIRPORT
Runway Length (ft) Width (ft) Surface Type Elevation (ft)
35/17 9818 94 ASP 585.60656

At Paramount Business Jets you can hire chartered private jets to and from Cameri Airport with as little as 4 hours of notice. All flights booked via Paramount Business Jets are operated by certified direct air carriers that meet and exceed the FAA part 135 and 121 protocol or a foreign equivalent safety authority. Furthermore, Paramount Business Jets subscribes to ARGUS for their third party safety checks of operators, aircraft, and crews prior each and every flight to and from Cameri Airport and worldwide.

  • Quote a trip using Cameri Airport or call us 24/7 - 365 days a year at +44-20-3874-8091.
Questions? Call +44-20-3874-8091

METAR Weather Data at Cameri Airport, LIMN, LTT

STATIONLIMN
OBSERVEDFri Mar 22, 17:55 UTC
NOWSun Mar 24, 11:23 UTC
AGE41:28 hr ago
WINDSSE at 3 mph
VISIBILITYgreater than 7 miles
CLOUDSclear skies
TEMP61°F (16°C)
DEWPT28°F (-2°C)
HUMIDITY29%
BAROMETER1026 hPa (30.3 in Hg)
METARLIMN 221755Z 15003KT CAVOK 16/M02 Q1026 RMK FEW FEW200 VIS MIN 9999 BLU

Call us on +44-20-3874-8091 (24 Hours) to Hire a Private Jet or Get a Quick Quote.

Find Airports Near any Location

Processing
...